Wind_Speed
10 10 10 10 10 10 9 9 8 8 8 8 9 9 9 9 9 10 9 9 9 9 9 9 9 8 8 7 7 8 8 7 7 6 6 6 6 6 6 7 7 7 7
9 9 9 9 9 9 8 8 7 7 7 7 7 7 7 8 8 8 8 8 8 8 8 8 9 8 8 7 7 7 7 7 6 5 5 6 5 6 6 6 6 7 6
8 8 9 9 9 8 8 7 6 6 6 6 5 6 6 7 7 7 7 7 7 7 7 7 7 7 7 6 6 6 6 5 5 5 5 5 5 5 5 5 6 6 6
7 7 8 8 8 7 6 6 5 5 5 4 4 5 5 6 6 6 6 5 5 6 6 6 6 6 5 5 5 5 5 5 5 4 4 5 5 4 4 4 5 5 5
6 6 7 7 7 6 6 5 5 4 4 4 3 4 4 4 5 4 4 4 4 5 5 5 5 5 5 4 4 4 4 5 5 4 4 5 5 4 4 4 5 5 5
5 5 6 6 6 5 5 4 4 4 3 3 3 3 3 3 3 3 3 3 3 4 4 4 4 4 4 4 4 4 4 4 4 4 4 4 4 4 4 4 4 5 5
4 4 5 5 5 4 4 4 3 3 2 2 2 2 2 2 2 2 2 1 2 3 3 3 3 3 3 3 3 3 3 3 3 3 3 4 4 5 4 4 4 4 4
3 4 3 4 4 3 3 3 3 2 2 1 2 1 1 1 0 0 0 1 2 1 2 2 2 2 2 2 2 2 3 3 3 3 3 3 4 4 4 4 4 4 3
3 3 2 2 3 2 2 2 2 2 1 1 1 0 0 1 1 1 1 1 1 1 1 1 2 2 2 2 2 2 2 2 3 3 3 3 3 3 4 4 3 3 3
2 2 2 3 3 2 2 1 1 0 0 0 0 0 1 1 1 1 1 1 1 1 1 1 1 1 2 2 2 2 2 2 1 2 2 2 2 2 3 3 3 3 3
3 3 3 3 3 3 3 2 1 1 1 1 0 1 1 1 1 1 1 1 1 1 1 1 1 1 1 1 2 2 2 2 0 1 1 2 2 2 2 2 2 3 3
3 3 4 4 4 4 3 3 2 1 1 1 1 1 1 2 2 2 2 2 2 2 2 2 2 1 1 1 1 2 3 2 0 1 1 2 1 1 1 2 2 3 2
2 2 3 4 5 5 5 4 4 3 2 1 1 1 2 2 3 3 3 3 2 2 2 2 2 1 2 2 2 3 2 1 0 1 1 2 2 1 1 1 2 2 2
3 3 3 4 5 5 5 5 5 4 3 3 2 2 3 3 4 4 4 4 3 3 3 2 2 2 2 3 3 3 2 2 2 2 2 2 2 1 1 1 1 1 2
4 4 3 5 5 6 5 5 5 5 4 4 4 4 4 4 4 4 4 5 4 4 3 3 3 3 3 3 3 3 2 3 2 3 3 3 2 2 2 2 2 2 2
4 5 4 5 6 6 6 6 5 5 4 5 5 5 5 5 5 5 5 5 5 5 4 4 4 4 4 4 4 3 3 3 4 4 3 3 3 3 3 3 3 2 2
5 5 5 6 7 7 6 6 6 5 5 5 6 6 6 6 5 5 6 6 5 5 5 5 5 5 4 4 4 4 3 3 3 3 3 3 3 3 3 3 3 3 4
5 5 6 6 7 7 8 7 7 7 7 6 6 7 6 6 6 5 6 6 6 7 7 7 6 6 5 5 5 4 4 3 3 3 3 3 3 3 4 4 4 4 5
5 6 6 7 8 7 8 8 8 8 8 8 8 8 8 7 7 7 6 6 6 7 7 7 7 7 6 5 5 5 4 4 4 4 4 4 3 3 3 3 4 4 5
6 7 7 8 8 8 9 9 9 9 9 9 9 8 8 8 8 7 7 7 7 7 7 7 8 7 7 6 7 6 6 6 5 5 5 5 5 5 4 5 5 5 5
7 7 8 7 8 8 9 9 9 9 9 9 9 10 9 9 9 9 9 8 8 8 8 8 8 8 7 7 7 7 7 6 5 5 5 5 5 5 5 6 6 5 5
8 8 8 9 8 8 8 9 9 10 10 9 10 10 10 9 10 10 10 10 10 10 9 9 9 8 8 8 7 6 6 6 6 6 6 6 6 6 6 6 6 6 6
8 8 8 8 8 8 8 8 8 8 9 9 9 9 10 10 11 10 10 11 11 11 11 10 9 8 8 7 7 7 7 7 7 6 6 6 6 6 7 6 6 5 5
9 8 9 9 9 8 7 7 8 8 9 9 9 9 10 10 9 10 10 11 11 11 11 11 10 9 8 8 8 7 7 7 7 6 6 6 6 7 7 6 6 6 6
9 9 9 9 9 9 8 8 8 9 9 9 9 9 9 9 9 9 10 10 11 12 11 11 11 10 9 9 9 9 9 8 7 7 7 7 7 7 7 7 7 7 7
9 10 10 10 10 10 9 9 10 10 10 10 9 9 9 9 9 9 9 9 10 10 10 10 10 10 9 9 9 9 9 9 8 8 7 7 7 7 7 7 8 8 8
Wind_Direction
110 111 110 110 108 107 106 105 102 99 100 100 99 100 101 101 99 100 102 102 102 103 104 103 101 104 102 97 94 92 89 89 89 83 79 78 81 81 80 77 74 72 68
110 113 115 111 111 109 108 106 101 99 101 102 100 100 102 101 98 100 101 101 101 102 102 100 99 100 99 94 93 91 87 85 85 78 74 76 80 81 81 77 73 72 68
113 116 120 115 115 111 109 107 102 101 100 103 102 100 102 101 99 100 102 101 101 101 101 101 99 96 93 93 91 86 83 81 79 74 66 70 75 73 75 77 77 76 74
117 117 122 118 117 114 110 106 102 101 101 101 100 101 101 101 101 101 101 101 102 101 101 101 100 93 86 87 85 81 76 73 76 66 58 61 62 65 72 81 83 81 76
124 120 121 122 122 119 114 108 104 101 100 92 100 100 101 99 100 100 98 102 101 99 101 99 95 89 82 79 77 75 73 71 70 65 59 57 57 59 73 81 81 83 77
127 126 122 126 126 125 116 111 104 100 102 94 106 105 108 104 98 91 91 103 101 100 98 96 90 84 76 69 67 67 66 67 72 67 58 54 55 57 71 84 85 85 82
130 128 127 127 130 128 117 112 101 98 103 107 114 109 116 109 99 87 82 102 108 106 95 88 80 73 68 70 69 63 56 67 71 64 54 53 56 63 73 77 74 83 84
138 145 145 137 139 141 132 119 112 104 102 117 119 109 100 117 131 328 17 63 90 92 85 83 77 70 60 51 46 45 50 52 64 60 59 54 61 70 68 69 65 63 65
143 153 160 164 162 165 148 132 120 109 109 140 156 184 222 222 233 277 301 18 50 49 53 53 60 60 39 28 18 20 35 39 69 69 60 64 67 69 62 64 51 48 52
176 181 187 188 185 191 194 185 154 133 224 224 284 234 255 254 248 259 276 310 337 5 7 9 35 47 35 33 20 359 1 14 60 62 49 47 53 64 59 50 44 38 40
197 198 198 205 205 207 212 217 206 239 276 255 270 306 291 273 253 260 271 289 299 314 327 341 352 354 12 21 14 349 353 348 20 13 15 21 32 41 39 33 34 22 26
215 215 212 213 210 213 220 228 232 237 273 271 276 290 308 294 272 271 266 274 289 305 310 311 324 318 335 344 351 337 340 330 321 343 358 356 3 5 9 10 13 20 26
242 228 220 221 217 220 231 239 246 239 241 262 291 295 290 291 276 271 264 263 278 296 302 302 301 309 331 325 339 342 342 356 342 289 325 342 339 333 334 354 5 5 12
259 259 249 234 227 227 238 242 250 242 238 245 269 286 289 290 287 272 265 260 273 287 291 292 296 304 314 319 332 344 345 319 309 294 315 329 329 320 318 338 335 328 346
258 268 263 245 239 236 244 246 251 236 234 246 261 275 286 286 285 279 270 262 266 270 276 287 293 294 297 304 313 323 313 304 304 293 309 305 299 295 297 312 322 306 317
249 258 254 246 246 239 240 244 240 230 238 248 257 270 282 280 281 274 275 267 257 252 258 275 287 294 298 297 292 301 305 304 305 296 297 295 285 290 301 299 294 295 299
251 251 254 247 243 237 236 245 247 243 245 251 254 265 278 274 274 271 262 258 254 254 254 262 271 282 290 293 289 297 303 304 304 293 295 293 280 279 284 293 286 287 297
261 261 262 251 247 240 235 240 246 248 251 254 257 264 267 268 266 266 261 259 256 254 255 253 258 264 275 285 287 290 296 301 299 292 290 292 288 286 284 286 288 289 295
271 270 267 259 255 247 237 237 243 250 254 256 259 261 259 262 264 264 262 264 257 256 255 252 253 257 267 274 277 277 280 289 293 286 285 287 287 296 291 290 294 294 297
271 270 271 265 262 255 248 244 244 250 253 256 261 258 257 260 262 262 259 257 259 259 255 254 255 252 258 265 271 273 277 276 283 283 284 276 279 287 288 286 286 293 300
281 276 273 267 269 255 252 248 247 249 253 258 263 258 257 260 259 261 256 254 256 258 256 257 256 253 255 260 263 268 273 270 270 275 280 275 273 276 280 283 281 284 294
280 272 264 261 261 255 250 245 249 249 251 257 265 259 259 260 259 261 254 250 252 255 255 255 257 256 257 259 259 259 259 262 266 270 273 273 270 273 277 279 280 284 286
279 270 264 258 260 258 255 249 248 252 255 260 264 259 257 258 259 259 252 252 251 252 253 253 254 252 253 255 256 259 259 258 261 266 267 266 268 272 275 277 278 281 286
277 267 262 258 258 259 258 254 251 254 257 258 261 261 258 254 256 255 253 254 252 251 251 249 249 250 248 251 255 260 262 257 258 262 262 259 264 268 271 276 274 275 280
273 266 262 256 256 256 256 256 253 252 252 255 260 258 257 254 253 255 254 255 254 249 248 248 247 246 247 253 259 261 260 257 259 259 258 261 262 262 266 273 275 275 277
269 266 261 257 254 255 258 258 256 254 253 256 257 255 251 253 251 250 252 253 250 243 241 245 246 245 248 252 257 260 261 257 256 254 254 257 259 261 268 276 278 277 274
Height
5888 5888 5889 5889 5890 5891 5891 5892 5892 5893 5893 5894 5894 5894 5894 5894 5894 5894 5894 5894 5894 5894 5894 5894 5894 5894 5894 5894 5894 5894 5893 5893 5893 5892 5892 5891 5891 5890 5889 5889 5888 5887 5887
5890 5890 5890 5891 5892 5892 5893 5894 5894 5894 5895 5895 5896 5896 5896 5896 5896 5896 5896 5895 5895 5895 5895 5896 5896 5896 5896 5895 5895 5895 5894 5894 5894 5894 5893 5892 5892 5891 5890 5890 5889 5888 5888
5891 5891 5892 5892 5893 5894 5895 5895 5896 5896 5896 5897 5897 5897 5897 5897 5897 5897 5897 5897 5897 5896 5897 5897 5897 5897 5897 5896 5896 5896 5895 5895 5895 5895 5894 5893 5893 5892 5891 5891 5890 5890 5889
5892 5892 5893 5894 5894 5895 5896 5897 5897 5897 5898 5898 5898 5898 5899 5899 5899 5899 5898 5898 5898 5898 5898 5898 5898 5898 5898 5897 5897 5897 5896 5896 5896 5895 5895 5894 5893 5893 5892 5891 5891 5891 5890
5893 5894 5894 5895 5896 5896 5897 5898 5898 5899 5899 5899 5899 5899 5900 5900 5900 5900 5900 5899 5899 5899 5899 5899 5899 5899 5898 5898 5898 5897 5897 5897 5896 5896 5895 5895 5894 5894 5893 5892 5892 5892 5891
5894 5895 5895 5896 5897 5897 5898 5899 5899 5900 5900 5900 5900 5900 5901 5901 5901 5901 5901 5900 5900 5900 5900 5900 5900 5900 5899 5899 5899 5898 5898 5897 5897 5897 5896 5896 5895 5894 5894 5893 5893 5892 5892
5895 5895 5896 5897 5898 5898 5899 5900 5900 5900 5901 5901 5901 5901 5902 5902 5902 5902 5902 5901 5901 5901 5901 5901 5901 5901 5900 5900 5899 5899 5898 5898 5898 5898 5897 5897 5896 5895 5894 5894 5893 5893 5893
5895 5896 5897 5898 5898 5899 5900 5900 5901 5901 5901 5901 5901 5902 5902 5902 5902 5902 5902 5902 5902 5902 5902 5902 5902 5901 5901 5901 5900 5900 5899 5899 5898 5898 5897 5897 5896 5896 5895 5895 5894 5894 5893
5896 5896 5897 5898 5899 5900 5900 5901 5901 5901 5902 5902 5902 5902 5903 5903 5903 5903 5903 5902 5902 5903 5902 5902 5902 5902 5901 5901 5901 5900 5900 5899 5899 5898 5898 5897 5896 5896 5895 5895 5895 5894 5893
5896 5897 5897 5898 5899 5900 5900 5901 5901 5902 5902 5902 5902 5902 5903 5903 5903 5903 5903 5903 5903 5903 5903 5903 5902 5902 5901 5901 5901 5900 5900 5900 5899 5899 5898 5897 5897 5896 5896 5895 5895 5894 5894
5896 5896 5897 5898 5899 5899 5900 5901 5901 5901 5902 5902 5902 5903 5903 5903 5903 5903 5903 5903 5903 5903 5903 5903 5902 5902 5902 5901 5901 5900 5900 5899 5899 5899 5898 5898 5897 5896 5896 5895 5895 5894 5894
5895 5896 5897 5898 5898 5899 5900 5900 5901 5901 5902 5902 5902 5903 5903 5903 5902 5902 5903 5903 5903 5903 5903 5902 5902 5902 5901 5901 5901 5900 5900 5899 5899 5898 5898 5897 5897 5896 5896 5895 5895 5894 5894
5895 5896 5896 5897 5898 5899 5899 5900 5900 5901 5901 5902 5902 5902 5902 5902 5902 5902 5902 5902 5902 5902 5902 5902 5902 5901 5901 5901 5900 5900 5899 5899 5898 5898 5898 5897 5896 5896 5896 5895 5895 5894 5894
5895 5895 5896 5896 5897 5898 5898 5899 5899 5900 5901 5901 5902 5902 5902 5902 5902 5902 5902 5902 5902 5902 5902 5902 5901 5901 5901 5900 5900 5900 5899 5899 5898 5898 5897 5897 5896 5896 5895 5895 5894 5894 5893
5894 5894 5895 5895 5896 5897 5897 5898 5898 5899 5900 5901 5901 5901 5901 5901 5901 5901 5901 5901 5901 5901 5901 5901 5901 5901 5900 5900 5900 5900 5899 5898 5897 5898 5897 5896 5896 5896 5895 5895 5894 5894 5893
5894 5894 5894 5894 5895 5896 5896 5897 5897 5898 5899 5900 5900 5900 5900 5900 5900 5900 5900 5900 5900 5900 5900 5900 5900 5900 5900 5900 5899 5899 5899 5898 5898 5897 5896 5896 5896 5895 5895 5894 5894 5893 5893
5892 5892 5893 5893 5894 5894 5895 5896 5896 5897 5898 5898 5898 5899 5899 5899 5899 5899 5899 5899 5899 5899 5899 5900 5900 5899 5899 5899 5899 5898 5898 5898 5897 5896 5896 5895 5895 5894 5894 5893 5893 5892 5892
5890 5890 5891 5891 5892 5893 5894 5894 5895 5895 5896 5896 5897 5897 5897 5897 5897 5898 5898 5898 5898 5898 5898 5898 5899 5899 5898 5898 5898 5897 5897 5897 5896 5896 5895 5895 5894 5894 5893 5893 5892 5892 5891
5888 5888 5889 5889 5890 5891 5892 5892 5893 5894 5894 5895 5895 5895 5895 5895 5896 5896 5896 5896 5896 5897 5897 5897 5897 5897 5897 5897 5897 5897 5896 5896 5896 5895 5895 5894 5893 5893 5892 5892 5891 5891 5890
5886 5886 5886 5887 5888 5888 5889 5890 5891 5891 5892 5892 5892 5893 5893 5893 5894 5894 5894 5894 5895 5895 5895 5895 5895 5896 5896 5896 5896 5896 5896 5895 5895 5894 5894 5893 5893 5892 5892 5891 5890 5890 5889
5884 5884 5883 5884 5885 5886 5886 5887 5888 5889 5889 5890 5890 5890 5891 5891 5891 5892 5892 5892 5893 5893 5893 5893 5894 5894 5894 5894 5894 5894 5894 5894 5894 5893 5893 5892 5892 5891 5890 5890 5889 5888 5887
5882 5882 5882 5883 5883 5883 5884 5884 5885 5886 5886 5887 5887 5887 5888 5889 5889 5889 5890 5890 5891 5891 5891 5892 5892 5892 5893 5893 5893 5893 5893 5893 5892 5892 5891 5891 5890 5890 5889 5888 5888 5887 5886
5880 5880 5880 5880 5881 5881 5881 5882 5883 5883 5884 5885 5885 5885 5886 5886 5886 5886 5887 5888 5888 5889 5889 5890 5890 5890 5891 5891 5891 5891 5891 5891 5890 5890 5890 5889 5888 5888 5887 5887 5886 5886 5885
5878 5877 5877 5878 5879 5879 5879 5880 5880 5881 5882 5882 5882 5883 5883 5883 5883 5884 5884 5885 5886 5886 5887 5887 5888 5888 5889 5889 5889 5889 5889 5889 5888 5888 5888 5887 5887 5886 5886 5885 5885 5884 5883
5875 5875 5875 5876 5876 5877 5877 5878 5878 5879 5879 5880 5880 5880 5880 5880 5881 5881 5882 5882 5883 5883 5884 5885 5885 5886 5886 5886 5887 5887 5887 5887 5886 5886 5886 5886 5885 5885 5884 5884 5883 5882 5882
5873 5873 5873 5873 5874 5874 5875 5875 5875 5876 5876 5877 5877 5877 5878 5878 5878 5879 5879 5880 5880 5881 5882 5882 5883 5883 5884 5884 5884 5884 5884 5884 5884 5884 5884 5884 5884 5883 5883 5882 5881 5881 5880